Voltar ao catálogo

NOAA 16 DEB

AtivoSSO
NORAD 41083·DEBRIS·🇺🇸 United States

Lançado Sep 21, 2000 de Vandenberg Space Force Base

Loading…

Próximas Passagens (próximas 24 horas)

TLE

AtualizadoSource: Space-Track

Época: Sep 14, 2026, 03:44 UTC

1 41083U 00055AS  26257.15621224  .00000174  00000-0  19399-3 0  9997
2 41083  98.9869 140.2008 0203737 313.7231  44.7203 13.75397425541460

Acompanhe NOAA 16 DEB em tempo real com AllMySat

Download on the App Store